View from above orbital plane
|
View from above satellite
|
Ground track
|
The orbit data is extracted from the following two-line orbital elements,
1 18421U 87088A 21023.15030653 .00000678 00000-0 32201-4 0 9991
2 18421 82.4986 56.0780 0015638 29.0062 331.2036 15.17431210818081
Epoch (UTC): | 23 January 2021 03:36:26 |
Eccentricity: | 0.0015638 |
inclination: | 82.4986° |
perigee height: | 503 km |
apogee height: | 524 km |
right ascension of ascending node: | 56.0780° |
argument of perigee: | 29.0062° |
revolutions per day: | 15.17431210 |
mean anomaly at epoch: | 331.2036° |
orbit number at epoch: | 81808 |
The dashed part of the orbit path shows where the satellite is in the earth's shadow,
|
|